Date String (YYYY-MM-DD hh:mm:ss) UTC,Instrument flags,absolute air pressure of the measurement (hPa),sample flow rate (lpm),inlet stack bypass flow (lpm),air temperature of the measurement (°C),ambient temperature measured by the external sensor (°C),aerosol sample conditioner tube jacket temperature (°C),OPC LED temperature (°C),internal box temperature (°C),relative humidity of the measurement (%),span deviation,mass concentration of particles derived from Lorenz-Mie calculation of OPC scattering (μg/m³),mass concentration of particles derived from Lorenz-Mie calculation of OPC scattering (μg/m³),mass concentration of particles derived from Lorenz-Mie calculation of OPC scattering (μg/m³)
DateTimeUTC,F1_M11,P_M11,Q1_M11,Q2_M11,T1_M11,T2_M11,T3_M11,T4_M11,T5_M11,U1_M11,ZSPAN_M11,X0_M11,X2_M11,X1_M11
2024-01-22 20:00:00,SystemResetWarning,0823.9,5.01,000.00,024.7,024.0,000.0,032.9,026.1,14.4,0004.3,0013.31,0006.39,0006.07
2024-01-22 20:01:00,SystemResetWarning,0823.9,5.00,000.00,024.7,024.1,000.0,032.9,026.1,14.4,0004.2,0014.24,0006.37,0006.06
2024-01-22 20:02:00,SystemResetWarning,0823.9,4.99,000.00,024.7,024.1,000.0,032.9,026.1,14.4,0004.2,0014.26,0006.39,0006.09
2024-01-22 20:03:00,SystemResetWarning,0823.9,5.00,000.00,024.7,024.1,000.0,032.9,026.1,14.4,0004.3,0014.32,0006.43,0006.13
2024-01-22 20:04:00,SystemResetWarning,0823.9,5.00,000.00,024.7,024.1,000.0,032.9,026.1,14.2,0004.2,0013.85,0006.50,0006.18
2024-01-22 20:05:00,SystemResetWarning,0823.9,5.01,000.00,024.7,024.1,000.0,032.9,026.1,14.0,0004.2,0013.96,0006.56,0006.22
2024-01-22 20:06:00,SystemResetWarning,0823.9,5.00,000.00,024.7,024.1,000.0,033.0,026.2,14.0,0004.1,0014.45,0006.67,0006.26
2024-01-22 20:07:00,SystemResetWarning,0823.9,5.00,000.00,024.7,024.1,000.0,033.0,026.2,13.9,0004.1,0014.87,0006.74,0006.31
2024-01-22 20:08:00,SystemResetWarning,0823.8,5.00,000.00,024.8,024.1,000.0,033.0,026.2,13.6,0003.8,0015.17,0006.83,0006.36
2024-01-22 20:09:00,SystemResetWarning,0823.8,5.00,000.00,024.8,024.1,000.0,033.0,026.2,13.7,0003.7,0014.97,0006.91,0006.42
2024-01-22 20:10:00,SystemResetWarning,0823.9,4.99,000.00,024.8,024.1,000.0,033.0,026.2,14.0,0003.6,0015.76,0006.99,0006.47
2024-01-22 20:11:00,SystemResetWarning,0823.8,5.00,000.00,024.8,024.1,000.0,033.0,026.2,13.8,0003.6,0015.33,0007.03,0006.49
2024-01-22 20:12:00,SystemResetWarning,0823.8,5.00,000.00,024.8,024.1,000.0,033.0,026.2,13.9,0003.6,0014.33,0007.08,0006.52
2024-01-22 20:13:00,SystemResetWarning,0823.8,5.00,000.00,024.8,024.1,000.0,033.0,026.2,14.0,0003.4,0015.13,0007.14,0006.55
2024-01-22 20:14:00,SystemResetWarning,0823.8,5.00,000.00,024.8,024.1,000.0,033.0,026.2,13.9,0003.6,0015.71,0007.19,0006.54
2024-01-22 20:15:00,SystemResetWarning,0823.8,5.00,000.00,024.8,024.1,000.0,033.1,026.2,14.0,0003.7,0016.04,0007.20,0006.54
2024-01-22 20:16:00,SystemResetWarning,0823.8,5.00,000.00,024.8,024.2,000.0,033.1,026.3,14.1,0003.7,0016.34,0007.22,0006.55
2024-01-22 20:17:00,SystemResetWarning,0823.8,5.00,000.00,024.8,024.2,000.0,033.1,026.3,14.1,0003.5,0016.81,0007.19,0006.56
2024-01-22 20:18:00,SystemResetWarning,0823.8,5.01,000.00,024.9,024.2,000.0,033.1,026.3,14.2,0003.5,0017.13,0007.18,0006.55
2024-01-22 20:19:00,SystemResetWarning,0823.8,5.00,000.00,024.9,024.2,000.0,033.1,026.3,14.1,0003.8,0016.56,0007.18,0006.53
2024-01-22 20:20:00,SystemResetWarning,0823.8,5.00,000.00,024.9,024.2,000.0,033.1,026.3,13.9,0004.2,0016.17,0007.19,0006.51
2024-01-22 20:21:00,SystemResetWarning,0823.8,5.00,000.00,024.9,024.3,000.0,033.1,026.4,14.1,0004.4,0015.66,0007.14,0006.47
2024-01-22 20:22:00,SystemResetWarning,0823.8,5.00,000.00,024.9,024.3,000.0,033.1,026.3,14.3,0004.3,0015.26,0007.16,0006.47
2024-01-22 20:23:00,SystemResetWarning,0823.8,5.00,000.00,024.9,024.3,000.0,033.1,026.4,14.2,0004.4,0015.39,0007.22,0006.48
2024-01-22 20:24:00,SystemResetWarning,0823.8,5.00,000.00,025.0,024.3,000.0,033.2,026.4,14.2,0004.6,0014.82,0007.24,0006.49
2024-01-22 20:25:00,SystemResetWarning,0823.8,5.00,000.00,025.0,024.3,000.0,033.2,026.4,14.1,0004.6,0015.01,0007.21,0006.49
2024-01-22 20:26:00,SystemResetWarning,0823.8,4.99,000.00,025.0,024.3,000.0,033.2,026.4,14.1,0004.5,0014.83,0007.15,0006.47
2024-01-22 20:27:00,SystemResetWarning,0823.8,4.99,000.00,025.0,024.4,000.0,033.2,026.4,14.1,0004.6,0014.50,0007.07,0006.42
2024-01-22 20:28:00,SystemResetWarning,0823.8,4.99,000.00,025.0,024.4,000.0,033.2,026.5,14.2,0004.6,0014.63,0007.06,0006.38
2024-01-22 20:29:00,SystemResetWarning,0823.8,5.00,000.00,025.0,024.4,000.0,033.2,026.5,14.3,0004.6,0014.49,0007.01,0006.33
2024-01-22 20:30:00,SystemResetWarning,0823.8,5.00,000.00,025.0,024.4,000.0,033.2,026.5,14.3,0004.6,0014.22,0006.88,0006.25
2024-01-22 20:31:00,SystemResetWarning,0823.8,5.00,000.00,025.0,024.4,000.0,033.3,026.5,14.3,0004.6,0013.84,0006.76,0006.16
2024-01-22 20:32:00,SystemResetWarning,0823.8,5.00,000.00,025.1,024.5,000.0,033.3,026.5,14.3,0004.6,0013.56,0006.67,0006.11
2024-01-22 20:33:00,SystemResetWarning,0823.8,5.01,000.00,025.1,024.5,000.0,033.3,026.5,14.2,0004.7,0013.38,0006.56,0006.04
2024-01-22 20:34:00,SystemResetWarning,0823.8,4.99,000.00,025.1,024.5,000.0,033.3,026.5,14.1,0004.8,0013.26,0006.46,0005.96
2024-01-22 20:35:00,SystemResetWarning,0823.8,4.99,000.00,025.1,024.5,000.0,033.3,026.6,13.5,0004.8,0012.93,0006.35,0005.89
2024-01-22 20:36:00,SystemResetWarning,0823.8,5.00,000.00,025.1,024.5,000.0,033.3,026.6,13.7,0004.5,0012.56,0006.31,0005.86
2024-01-22 20:37:00,SystemResetWarning,0823.8,5.00,000.00,025.1,024.5,000.0,033.3,026.6,13.6,0004.5,0012.53,0006.34,0005.87
2024-01-22 20:38:00,SystemResetWarning,0823.8,5.00,000.00,025.2,024.5,000.0,033.4,026.6,13.4,0004.3,0013.10,0006.40,0005.91
2024-01-22 20:39:00,SystemResetWarning,0823.8,5.01,000.00,025.2,024.6,000.0,033.4,026.6,13.3,0004.2,0013.07,0006.41,0005.93
2024-01-22 20:40:00,SystemResetWarning,0823.8,5.00,000.00,025.2,024.6,000.0,033.4,026.6,13.3,0004.3,0012.69,0006.43,0005.98
2024-01-22 20:41:00,SystemResetWarning,0823.8,5.01,000.00,025.2,024.6,000.0,033.4,026.6,13.2,0004.4,0012.73,0006.48,0006.01
2024-01-22 20:42:00,SystemResetWarning,0823.8,5.00,000.00,025.2,024.6,000.0,033.4,026.7,13.4,0004.3,0013.00,0006.56,0006.07
2024-01-22 20:43:00,SystemResetWarning,0823.8,4.99,000.00,025.3,024.6,000.0,033.4,026.7,13.4,0004.3,0013.67,0006.61,0006.12
2024-01-22 20:44:00,SystemResetWarning,0823.8,4.99,000.00,025.3,024.6,000.0,033.5,026.7,13.6,0004.1,0013.82,0006.67,0006.15
2024-01-22 20:45:00,SystemResetWarning,0823.8,4.99,000.00,025.3,024.7,000.0,033.5,026.7,13.6,0004.0,0013.80,0006.70,0006.19
2024-01-22 20:46:00,SystemResetWarning,0823.8,5.00,000.00,025.3,024.7,000.0,033.5,026.7,13.6,0004.0,0013.89,0006.73,0006.24
2024-01-22 20:47:00,SystemResetWarning,0823.8,5.00,000.00,025.3,024.7,000.0,033.5,026.7,13.5,0004.2,0013.54,0006.68,0006.23
2024-01-22 20:48:00,SystemResetWarning,0823.8,5.00,000.00,025.3,024.7,000.0,033.5,026.7,13.4,0004.4,0013.10,0006.66,0006.23
2024-01-22 20:49:00,SystemResetWarning,0823.8,5.00,000.00,025.3,024.7,000.0,033.5,026.8,13.6,0004.7,0012.58,0006.64,0006.22
2024-01-22 20:50:00,SystemResetWarning,0823.9,5.00,000.00,025.4,024.7,000.0,033.5,026.8,13.6,0004.8,0011.99,0006.62,0006.22
2024-01-22 20:51:00,SystemResetWarning,0823.9,5.00,000.00,025.4,024.7,000.0,033.5,026.8,13.4,0004.7,0012.02,0006.59,0006.22
2024-01-22 20:52:00,SystemResetWarning,0823.9,5.00,000.00,025.4,024.8,000.0,033.6,026.8,13.2,0004.6,0013.15,0006.63,0006.27
2024-01-22 20:53:00,SystemResetWarning,0823.9,5.00,000.00,025.4,024.8,000.0,033.6,026.8,13.2,0004.6,0013.10,0006.63,0006.29
2024-01-22 20:54:00,SystemResetWarning,0823.9,4.99,000.00,025.4,024.8,000.0,033.6,026.8,13.1,0004.5,0012.51,0006.66,0006.35
2024-01-22 20:55:00,SystemResetWarning,0824.0,4.99,000.00,025.4,024.8,000.0,033.6,026.9,13.1,0004.5,0012.48,0006.75,0006.42
2024-01-22 20:56:00,SystemResetWarning,0824.0,4.99,000.00,025.5,024.8,000.0,033.6,026.9,13.1,0004.4,0012.62,0006.79,0006.45
2024-01-22 20:57:00,SystemResetWarning,0824.0,5.00,000.00,025.5,024.9,000.0,033.6,026.9,13.2,0004.3,0012.78,0006.71,0006.36
2024-01-22 20:58:00,SystemResetWarning,0824.0,5.00,000.00,025.5,024.9,000.0,033.7,026.9,13.2,0004.2,0012.70,0006.64,0006.28
2024-01-22 20:59:00,SystemResetWarning,0823.9,5.00,000.00,025.5,024.9,000.0,033.7,027.0,13.3,0004.2,0012.89,0006.56,0006.20
